IRIDIUM 33 DEB, 34097

Orbit data source: Space-Track

IRIDIUM 33 DEB, 34097 is space debris in LEO originally from a launch on Sun, 14 Sep 1997 UTC launched from the Tyuratam Missile And Space Complex (TTMTR). The debris from Iridium 33, an American commercial communications satellite, has been tracked extensively since its accidental collision with the defunct Russian satellite Cosmos 2251 in 2009. This event, occurring at high speed in low Earth orbit (LEO), generated thousands of pieces of space debris, significantly increasing the risk of further collisions. The Iridium 33 debris cloud has impacted space traffic management and orbital debris mitigation strategies, making it a subject of ongoing study in space situational awareness.

Loading next visibility...
Identifier
34097, 1997-051DG
Orbit
LEO
Country
Flag of USUS
Related business
Manufacturer
Unknown
Mission
Spacecraft
Bus & Motor
Unknown
Mass
Unknown
Launch date (UTC)
1997-09-14 (28 years ago)
Launch vehicle
Unknown
Launch site
Tyuratam Missile And Space Complex (TTMTR)
Object type
Payload
Rocket body
Debris
Shape & HBR
Unknown shape, 0.1 m
Radar Cross Section
Small (<0.1 m²)

Expand to show TLE details & history
Last TLE update: 12 hours ago

TLE from 12 hours ago
0 IRIDIUM 33 DEB
1 34097U 97051DG  25303.20461247  .00006022  00000-0  20525-2 0  9990
2 34097  86.2036  20.6055 0084614 141.6816 219.0434 14.34312276864956
Epoch: 2025-10-30T04:54Z
TLE epoch observation values (Epoch: 2025-10-30T04:54:38.517Z)
Latitude
0.00001°
Longitude
-91.82174°
Altitude
827.637 km
Speed
7.415 km/s
True Right ascension
01h 22m 25s
True Declination
0° 00' 00"
Sunlit
Object was in full shadow at epoch
Visualization orbit readout
Latitude
Unknown
Longitude
Unknown
Altitude
Unknown
Speed
Unknown
Apparent Right ascension
Unknown
Apparent Declination
Unknown
Sunlit
N/A
Visualization observer readout
Local Sidereal Time
12:12:08
Azimuth
Unknown
Elevation
Unknown
Doppler factor
Unknown
Orbital elements
Apogee altitude
834.841 km
Perigee altitude
713.801 km
Semi-major axis
7,152.458 km
Eccentricity
0.00846
Inclination
86.2036°
RAAN
20.6055°
Arg. of periapsis
141.6816°
True anomaly
218.43763°
Mean anomaly
219.0434°
Eccentric anomaly
218.74002°
Mean motion
3.58806 °/min
Orbital period
100.33 mins
BSTAR
0.0020525
Loading maneuver chart data...
Computing Atmospheric mass density...

Documentation

Showing up to 5 results
|